Year,Month,Day,Hour,Minute,Value (Times are PST for temperature in C)
2009,09,25,00,00,11.30
2009,09,25,00,01,11.30
2009,09,25,00,02,11.20
2009,09,25,00,03,11.20
2009,09,25,00,04,11.20
2009,09,25,00,05,11.20
2009,09,25,00,06,11.20
2009,09,25,00,07,11.20
2009,09,25,00,08,11.20
2009,09,25,00,09,11.20
2009,09,25,00,10,11.20
2009,09,25,00,11,11.20
2009,09,25,00,12,11.20
2009,09,25,00,13,11.20
2009,09,25,00,14,11.20
2009,09,25,00,15,11.20
2009,09,25,00,16,11.20
2009,09,25,00,17,11.20
2009,09,25,00,18,11.20
2009,09,25,00,19,11.20
2009,09,25,00,20,11.20
2009,09,25,00,21,11.20
2009,09,25,00,22,11.20
2009,09,25,00,23,11.20
2009,09,25,00,24,11.20
2009,09,25,00,25,11.20
2009,09,25,00,26,11.10
2009,09,25,00,27,11.10
2009,09,25,00,28,11.10
2009,09,25,00,29,11.10
2009,09,25,00,30,11.10
2009,09,25,00,31,11.00
2009,09,25,00,32,11.00
2009,09,25,00,33,11.00
2009,09,25,00,34,10.90
2009,09,25,00,35,10.90
2009,09,25,00,36,10.90
2009,09,25,00,37,10.90
2009,09,25,00,38,10.90
2009,09,25,00,39,10.90
2009,09,25,00,40,10.80
2009,09,25,00,41,10.80
2009,09,25,00,42,10.80
2009,09,25,00,43,10.80
2009,09,25,00,44,10.80
2009,09,25,00,45,10.80
2009,09,25,00,46,10.80
2009,09,25,00,47,10.80
2009,09,25,00,48,10.80
2009,09,25,00,49,10.80
2009,09,25,00,50,10.80
2009,09,25,00,51,10.80
2009,09,25,00,52,10.80
2009,09,25,00,53,10.80
2009,09,25,00,54,10.70
2009,09,25,00,55,10.70
2009,09,25,00,56,10.70
2009,09,25,00,57,10.70
2009,09,25,00,58,10.70
2009,09,25,00,59,10.70
2009,09,25,01,00,10.70
2009,09,25,01,01,10.70
2009,09,25,01,02,10.70
2009,09,25,01,03,10.70
2009,09,25,01,04,10.70
2009,09,25,01,05,10.70
2009,09,25,01,06,10.60
2009,09,25,01,07,10.60
2009,09,25,01,08,10.60
2009,09,25,01,09,10.60
2009,09,25,01,10,10.60
2009,09,25,01,11,10.60
2009,09,25,01,12,10.60
2009,09,25,01,13,10.60
2009,09,25,01,14,10.60
2009,09,25,01,15,10.50
2009,09,25,01,16,10.50
2009,09,25,01,17,10.50
2009,09,25,01,18,10.50
2009,09,25,01,19,10.40
2009,09,25,01,20,10.40
2009,09,25,01,21,10.40
2009,09,25,01,22,10.40
2009,09,25,01,23,10.40
2009,09,25,01,24,10.30
2009,09,25,01,25,10.30
2009,09,25,01,26,10.30
2009,09,25,01,27,10.30
2009,09,25,01,28,10.30
2009,09,25,01,29,10.30
2009,09,25,01,30,10.30
2009,09,25,01,31,10.30
2009,09,25,01,32,10.30
2009,09,25,01,33,10.30
2009,09,25,01,34,10.30
2009,09,25,01,35,10.30
2009,09,25,01,36,10.30
2009,09,25,01,37,10.30
2009,09,25,01,38,10.30
2009,09,25,01,39,10.30
2009,09,25,01,40,10.20
2009,09,25,01,41,10.20
2009,09,25,01,42,10.20
2009,09,25,01,43,10.20
2009,09,25,01,44,10.20
2009,09,25,01,45,10.10
2009,09,25,01,46,10.10
2009,09,25,01,47,10.10
2009,09,25,01,48,10.10
2009,09,25,01,49,10.10
2009,09,25,01,50,10.10
2009,09,25,01,51,10.10
2009,09,25,01,52,10.10
2009,09,25,01,53,10.10
2009,09,25,01,54,10.10
2009,09,25,01,55,10.10
2009,09,25,01,56,10.10
2009,09,25,01,57,10.10
2009,09,25,01,58,10.10
2009,09,25,01,59,10.10
2009,09,25,02,00,10.00
2009,09,25,02,01,10.00
2009,09,25,02,02,10.00
2009,09,25,02,03,10.00
2009,09,25,02,04,9.90
2009,09,25,02,05,9.90
2009,09,25,02,06,9.90
2009,09,25,02,07,9.90
2009,09,25,02,08,9.90
2009,09,25,02,09,9.90
2009,09,25,02,10,9.90
2009,09,25,02,11,9.80
2009,09,25,02,12,9.80
2009,09,25,02,13,9.80
2009,09,25,02,14,9.80
2009,09,25,02,15,9.80
2009,09,25,02,16,9.80
2009,09,25,02,17,9.90
2009,09,25,02,18,9.90
2009,09,25,02,19,9.90
2009,09,25,02,20,9.90
2009,09,25,02,21,9.90
2009,09,25,02,22,9.90
2009,09,25,02,23,9.80
2009,09,25,02,24,9.80
2009,09,25,02,25,9.80
2009,09,25,02,26,9.80
2009,09,25,02,27,9.80
2009,09,25,02,28,9.80
2009,09,25,02,29,9.80
2009,09,25,02,30,9.80
2009,09,25,02,31,9.80
2009,09,25,02,32,9.80
2009,09,25,02,33,9.80
2009,09,25,02,34,9.70
2009,09,25,02,35,9.70
2009,09,25,02,36,9.70
2009,09,25,02,37,9.70
2009,09,25,02,38,9.70
2009,09,25,02,39,9.70
2009,09,25,02,40,9.70
2009,09,25,02,41,9.70
2009,09,25,02,42,9.70
2009,09,25,02,43,9.60
2009,09,25,02,44,9.60
2009,09,25,02,45,9.70
2009,09,25,02,46,9.70
2009,09,25,02,47,9.60
2009,09,25,02,48,9.60
2009,09,25,02,49,9.60
2009,09,25,02,50,9.60
2009,09,25,02,51,9.60
2009,09,25,02,52,9.60
2009,09,25,02,53,9.60
2009,09,25,02,54,9.60
2009,09,25,02,55,9.60
2009,09,25,02,56,9.60
2009,09,25,02,57,9.60
2009,09,25,02,58,9.50
2009,09,25,02,59,9.50
2009,09,25,03,00,9.50
2009,09,25,03,01,9.50
2009,09,25,03,02,9.60
2009,09,25,03,03,9.60
2009,09,25,03,04,9.60
2009,09,25,03,05,9.60
2009,09,25,03,06,9.50
2009,09,25,03,07,9.50
2009,09,25,03,08,9.50
2009,09,25,03,09,9.50
2009,09,25,03,10,9.50
2009,09,25,03,11,9.50
2009,09,25,03,12,9.50
2009,09,25,03,13,9.40
2009,09,25,03,14,9.50
2009,09,25,03,15,9.50
2009,09,25,03,16,9.50
2009,09,25,03,17,9.40
2009,09,25,03,18,9.40
2009,09,25,03,19,9.40
2009,09,25,03,20,9.40
2009,09,25,03,21,9.40
2009,09,25,03,22,9.30
2009,09,25,03,23,9.30
2009,09,25,03,24,9.30
2009,09,25,03,25,9.30
2009,09,25,03,26,9.30
2009,09,25,03,27,9.30
2009,09,25,03,28,9.30
2009,09,25,03,29,9.30
2009,09,25,03,30,9.20
2009,09,25,03,31,9.20
2009,09,25,03,32,9.30
2009,09,25,03,33,9.30
2009,09,25,03,34,9.30
2009,09,25,03,35,9.20
2009,09,25,03,36,9.20
2009,09,25,03,37,9.20
2009,09,25,03,38,9.20
2009,09,25,03,39,9.20
2009,09,25,03,40,9.20
2009,09,25,03,41,9.20
2009,09,25,03,42,9.20
2009,09,25,03,43,9.20
2009,09,25,03,44,9.20
2009,09,25,03,45,9.20
2009,09,25,03,46,9.20
2009,09,25,03,47,9.20
2009,09,25,03,48,9.20
2009,09,25,03,49,9.20
2009,09,25,03,50,9.20
2009,09,25,03,51,9.20
2009,09,25,03,52,9.20
2009,09,25,03,53,9.20
2009,09,25,03,54,9.20
2009,09,25,03,55,9.20
2009,09,25,03,56,9.20
2009,09,25,03,57,9.20
2009,09,25,03,58,9.20
2009,09,25,03,59,9.20
2009,09,25,04,00,9.20
2009,09,25,04,01,9.10
2009,09,25,04,02,9.10
2009,09,25,04,03,9.10
2009,09,25,04,04,9.10
2009,09,25,04,05,9.10
2009,09,25,04,06,9.00
2009,09,25,04,07,9.00
2009,09,25,04,08,9.00
2009,09,25,04,09,9.00
2009,09,25,04,10,9.00
2009,09,25,04,11,8.90
2009,09,25,04,12,8.90
2009,09,25,04,13,8.90
2009,09,25,04,14,8.90
2009,09,25,04,15,8.90
2009,09,25,04,16,9.00
2009,09,25,04,17,9.10
2009,09,25,04,18,9.10
2009,09,25,04,19,9.10
2009,09,25,04,20,9.10
2009,09,25,04,21,9.20
2009,09,25,04,22,9.20
2009,09,25,04,23,9.20
2009,09,25,04,24,9.20
2009,09,25,04,25,9.30
2009,09,25,04,26,9.30
2009,09,25,04,27,9.30
2009,09,25,04,28,9.30
2009,09,25,04,29,9.30
2009,09,25,04,30,9.30
2009,09,25,04,31,9.30
2009,09,25,04,32,9.30
2009,09,25,04,33,9.30
2009,09,25,04,34,9.30
2009,09,25,04,35,9.30
2009,09,25,04,36,9.30
2009,09,25,04,37,9.30
2009,09,25,04,38,9.30
2009,09,25,04,39,9.30
2009,09,25,04,40,9.30
2009,09,25,04,41,9.30
2009,09,25,04,42,9.30
2009,09,25,04,43,9.40
2009,09,25,04,44,9.40
2009,09,25,04,45,9.40
2009,09,25,04,46,9.40
2009,09,25,04,47,9.40
2009,09,25,04,48,9.40
2009,09,25,04,49,9.30
2009,09,25,04,50,9.30
2009,09,25,04,51,9.30
2009,09,25,04,52,9.40
2009,09,25,04,53,9.40
2009,09,25,04,54,9.40
2009,09,25,04,55,9.30
2009,09,25,04,56,9.30
2009,09,25,04,57,9.40
2009,09,25,04,58,9.40
2009,09,25,04,59,9.40
2009,09,25,05,00,9.40
2009,09,25,05,01,9.40
2009,09,25,05,02,9.40
2009,09,25,05,03,9.30
2009,09,25,05,04,9.40
2009,09,25,05,05,9.30
2009,09,25,05,06,9.30
2009,09,25,05,07,9.30
2009,09,25,05,08,9.30
2009,09,25,05,09,9.20
2009,09,25,05,10,9.20
2009,09,25,05,11,9.20
2009,09,25,05,12,9.20
2009,09,25,05,13,9.20
2009,09,25,05,14,9.20
2009,09,25,05,15,9.20
2009,09,25,05,16,9.10
2009,09,25,05,17,9.10
2009,09,25,05,18,9.10
2009,09,25,05,19,9.10
2009,09,25,05,20,9.00
2009,09,25,05,21,9.00
2009,09,25,05,22,9.00
2009,09,25,05,23,8.90
2009,09,25,05,24,8.90
2009,09,25,05,25,8.90
2009,09,25,05,26,8.90
2009,09,25,05,27,8.90
2009,09,25,05,28,8.80
2009,09,25,05,29,8.80
2009,09,25,05,30,8.80
2009,09,25,05,31,8.80
2009,09,25,05,32,8.80
2009,09,25,05,33,8.80
2009,09,25,05,34,8.70
2009,09,25,05,35,8.70
2009,09,25,05,36,8.70
2009,09,25,05,37,8.70
2009,09,25,05,38,8.70
2009,09,25,05,39,8.70
2009,09,25,05,40,8.70
2009,09,25,05,41,8.70
2009,09,25,05,42,8.70
2009,09,25,05,43,8.60
2009,09,25,05,44,8.60
2009,09,25,05,45,8.60
2009,09,25,05,46,8.60
2009,09,25,05,47,8.60
2009,09,25,05,48,8.60
2009,09,25,05,49,8.60
2009,09,25,05,50,8.70
2009,09,25,05,51,8.70
2009,09,25,05,52,8.70
2009,09,25,05,53,8.70
2009,09,25,05,54,8.70
2009,09,25,05,55,8.70
2009,09,25,05,56,8.70
2009,09,25,05,57,8.60
2009,09,25,05,58,8.70
2009,09,25,05,59,8.70
2009,09,25,06,00,8.70
2009,09,25,06,01,8.70
2009,09,25,06,02,8.70
2009,09,25,06,03,8.70
2009,09,25,06,04,8.80
2009,09,25,06,05,8.80
2009,09,25,06,06,8.80
2009,09,25,06,07,8.80
2009,09,25,06,08,8.80
2009,09,25,06,09,8.80
2009,09,25,06,10,8.70
2009,09,25,06,11,8.70
2009,09,25,06,12,8.70
2009,09,25,06,13,8.70
2009,09,25,06,14,8.70
2009,09,25,06,15,8.70
2009,09,25,06,16,8.70
2009,09,25,06,17,8.70
2009,09,25,06,18,8.70
2009,09,25,06,19,8.70
2009,09,25,06,20,8.70
2009,09,25,06,21,8.80
2009,09,25,06,22,8.80
2009,09,25,06,23,8.80
2009,09,25,06,24,8.80
2009,09,25,06,25,8.80
2009,09,25,06,26,8.80
2009,09,25,06,27,8.80
2009,09,25,06,28,8.80
2009,09,25,06,29,8.90
2009,09,25,06,30,8.80
2009,09,25,06,31,8.80
2009,09,25,06,32,8.80
2009,09,25,06,33,8.80
2009,09,25,06,34,8.80
2009,09,25,06,35,8.80
2009,09,25,06,36,8.80
2009,09,25,06,37,8.70
2009,09,25,06,38,8.70
2009,09,25,06,39,8.70
2009,09,25,06,40,8.60
2009,09,25,06,41,8.60
2009,09,25,06,42,8.60
2009,09,25,06,43,8.60
2009,09,25,06,44,8.60
2009,09,25,06,45,8.50
2009,09,25,06,46,8.50
2009,09,25,06,47,8.50
2009,09,25,06,48,8.50
2009,09,25,06,49,8.40
2009,09,25,06,50,8.40
2009,09,25,06,51,8.40
2009,09,25,06,52,8.40
2009,09,25,06,53,8.40
2009,09,25,06,54,8.30
2009,09,25,06,55,8.30
2009,09,25,06,56,8.30
2009,09,25,06,57,8.20
2009,09,25,06,58,8.20
2009,09,25,06,59,8.20
2009,09,25,07,00,8.20
2009,09,25,07,01,8.20
2009,09,25,07,02,8.10
2009,09,25,07,03,8.10
2009,09,25,07,04,8.10
2009,09,25,07,05,8.10
2009,09,25,07,06,8.10
2009,09,25,07,07,8.10
2009,09,25,07,08,8.10
2009,09,25,07,09,8.10
2009,09,25,07,10,8.10
2009,09,25,07,11,8.10
2009,09,25,07,12,8.10
2009,09,25,07,13,8.10
2009,09,25,07,14,8.10
2009,09,25,07,15,8.10
2009,09,25,07,16,8.10
2009,09,25,07,17,8.10
2009,09,25,07,18,8.10
2009,09,25,07,19,8.10
2009,09,25,07,20,8.10
2009,09,25,07,21,8.10
2009,09,25,07,22,8.10
2009,09,25,07,23,8.10
2009,09,25,07,24,8.10
2009,09,25,07,25,8.10
2009,09,25,07,26,8.10
2009,09,25,07,27,8.20
2009,09,25,07,28,8.20
2009,09,25,07,29,8.20
2009,09,25,07,30,8.20
2009,09,25,07,31,8.20
2009,09,25,07,32,8.20
2009,09,25,07,33,8.20
2009,09,25,07,34,8.30
2009,09,25,07,35,8.30
2009,09,25,07,36,8.30
2009,09,25,07,37,8.40
2009,09,25,07,38,8.40
2009,09,25,07,39,8.40
2009,09,25,07,40,8.50
2009,09,25,07,41,8.50
2009,09,25,07,42,8.50
2009,09,25,07,43,8.60
2009,09,25,07,44,8.60
2009,09,25,07,45,8.70
2009,09,25,07,46,8.70
2009,09,25,07,47,8.70
2009,09,25,07,48,8.70
2009,09,25,07,49,8.70
2009,09,25,07,50,8.80
2009,09,25,07,51,8.80
2009,09,25,07,52,8.80
2009,09,25,07,53,8.80
2009,09,25,07,54,8.80
2009,09,25,07,55,8.80
2009,09,25,07,56,8.80
2009,09,25,07,57,8.80
2009,09,25,07,58,8.80
2009,09,25,07,59,8.80
2009,09,25,08,00,8.80
2009,09,25,08,01,8.80
2009,09,25,08,02,8.80
2009,09,25,08,03,8.80
2009,09,25,08,04,8.80
2009,09,25,08,05,8.70
2009,09,25,08,06,8.70
2009,09,25,08,07,8.70
2009,09,25,08,08,8.70
2009,09,25,08,09,8.70
2009,09,25,08,10,8.70
2009,09,25,08,11,8.70
2009,09,25,08,12,8.70
2009,09,25,08,13,8.70
2009,09,25,08,14,8.70
2009,09,25,08,15,8.70
2009,09,25,08,16,8.70
2009,09,25,08,17,8.70
2009,09,25,08,18,8.80
2009,09,25,08,19,8.80
2009,09,25,08,20,8.80
2009,09,25,08,21,8.80
2009,09,25,08,22,8.80
2009,09,25,08,23,8.80
2009,09,25,08,24,8.80
2009,09,25,08,25,8.80
2009,09,25,08,26,8.80
2009,09,25,08,27,8.90
2009,09,25,08,28,8.90
2009,09,25,08,29,8.90
2009,09,25,08,30,8.90
2009,09,25,08,31,9.00
2009,09,25,08,32,9.00
2009,09,25,08,33,9.10
2009,09,25,08,34,9.10
2009,09,25,08,35,9.10
2009,09,25,08,36,9.10
2009,09,25,08,37,9.20
2009,09,25,08,38,9.20
2009,09,25,08,39,9.20
2009,09,25,08,40,9.30
2009,09,25,08,41,9.30
2009,09,25,08,42,9.30
2009,09,25,08,43,9.40
2009,09,25,08,44,9.40
2009,09,25,08,45,9.40
2009,09,25,08,46,9.50
2009,09,25,08,47,9.50
2009,09,25,08,48,9.60
2009,09,25,08,49,9.60
2009,09,25,08,50,9.60
2009,09,25,08,51,9.70
2009,09,25,08,52,9.70
2009,09,25,08,53,9.80
2009,09,25,08,54,9.80
2009,09,25,08,55,9.80
2009,09,25,08,56,9.90
2009,09,25,08,57,9.90
2009,09,25,08,58,9.90
2009,09,25,08,59,10.00
2009,09,25,09,00,10.00
2009,09,25,09,01,10.10
2009,09,25,09,02,10.20
2009,09,25,09,03,10.20
2009,09,25,09,04,10.30
2009,09,25,09,05,10.30
2009,09,25,09,06,10.40
2009,09,25,09,07,10.50
2009,09,25,09,08,10.50
2009,09,25,09,09,10.60
2009,09,25,09,10,10.70
2009,09,25,09,11,10.70
2009,09,25,09,12,10.80
2009,09,25,09,13,10.80
2009,09,25,09,14,10.80
2009,09,25,09,15,10.80
2009,09,25,09,16,10.90
2009,09,25,09,17,10.90
2009,09,25,09,18,10.90
2009,09,25,09,19,11.00
2009,09,25,09,20,11.10
2009,09,25,09,21,11.10
2009,09,25,09,22,11.20
2009,09,25,09,23,11.20
2009,09,25,09,24,11.30
2009,09,25,09,25,11.30
2009,09,25,09,26,11.40
2009,09,25,09,27,11.50
2009,09,25,09,28,11.50
2009,09,25,09,29,11.60
2009,09,25,09,30,11.60
2009,09,25,09,31,11.60
2009,09,25,09,32,11.70
2009,09,25,09,33,11.70
2009,09,25,09,34,11.70
2009,09,25,09,35,11.80
2009,09,25,09,36,11.80
2009,09,25,09,37,11.80
2009,09,25,09,38,11.90
2009,09,25,09,39,11.90
2009,09,25,09,40,12.00
2009,09,25,09,41,12.00
2009,09,25,09,42,12.10
2009,09,25,09,43,12.10
2009,09,25,09,44,12.20
2009,09,25,09,45,12.20
2009,09,25,09,46,12.30
2009,09,25,09,47,12.30
2009,09,25,09,48,12.40
2009,09,25,09,49,12.50
2009,09,25,09,50,12.50
2009,09,25,09,51,12.60
2009,09,25,09,52,12.60
2009,09,25,09,53,12.70
2009,09,25,09,54,12.70
2009,09,25,09,55,12.80
2009,09,25,09,56,12.80
2009,09,25,09,57,12.90
2009,09,25,09,58,12.90
2009,09,25,09,59,13.00
2009,09,25,10,00,13.00
2009,09,25,10,01,13.10
2009,09,25,10,02,13.10
2009,09,25,10,03,13.10
2009,09,25,10,04,13.20
2009,09,25,10,05,13.20
2009,09,25,10,06,13.30
2009,09,25,10,07,13.30
2009,09,25,10,08,13.30
2009,09,25,10,09,13.40
2009,09,25,10,10,13.40
2009,09,25,10,11,13.40
2009,09,25,10,12,13.40
2009,09,25,10,13,13.50
2009,09,25,10,14,13.50
2009,09,25,10,15,13.50
2009,09,25,10,16,13.60
2009,09,25,10,17,13.70
2009,09,25,10,18,13.80
2009,09,25,10,19,13.90
2009,09,25,10,20,14.00
2009,09,25,10,21,14.10
2009,09,25,10,22,14.20
2009,09,25,10,23,14.30
2009,09,25,10,24,14.30
2009,09,25,10,25,14.40
2009,09,25,10,26,14.50
2009,09,25,10,27,14.60
2009,09,25,10,28,14.60
2009,09,25,10,29,14.70
2009,09,25,10,30,14.80
2009,09,25,10,31,14.80
2009,09,25,10,32,15.00
2009,09,25,10,33,15.00
2009,09,25,10,34,15.00
2009,09,25,10,35,15.00
2009,09,25,10,36,15.00
2009,09,25,10,37,15.10
2009,09,25,10,38,15.30
2009,09,25,10,39,15.30
2009,09,25,10,40,15.40
2009,09,25,10,41,15.50
2009,09,25,10,42,15.60
2009,09,25,10,43,15.70
2009,09,25,10,44,15.80
2009,09,25,10,45,15.90
2009,09,25,10,46,16.00
2009,09,25,10,47,16.10
2009,09,25,10,48,16.20
2009,09,25,10,49,16.20
2009,09,25,10,50,16.20
2009,09,25,10,51,16.30
2009,09,25,10,52,16.30
2009,09,25,10,53,16.30
2009,09,25,10,54,16.40
2009,09,25,10,55,16.40
2009,09,25,10,56,16.50
2009,09,25,10,57,16.50
2009,09,25,10,58,16.60
2009,09,25,10,59,16.70
2009,09,25,11,00,16.70
2009,09,25,11,01,16.70
2009,09,25,11,02,16.70
2009,09,25,11,03,16.80
2009,09,25,11,04,16.80
2009,09,25,11,05,16.90
2009,09,25,11,06,17.00
2009,09,25,11,07,17.10
2009,09,25,11,08,17.10
2009,09,25,11,09,17.20
2009,09,25,11,10,17.20
2009,09,25,11,11,17.30
2009,09,25,11,12,17.30
2009,09,25,11,13,17.40
2009,09,25,11,14,17.40
2009,09,25,11,15,17.40
2009,09,25,11,16,17.40
2009,09,25,11,17,17.50
2009,09,25,11,18,17.40
2009,09,25,11,19,17.40
2009,09,25,11,20,17.40
2009,09,25,11,21,17.50
2009,09,25,11,22,17.50
2009,09,25,11,23,17.50
2009,09,25,11,24,17.60
2009,09,25,11,25,17.70
2009,09,25,11,26,17.70
2009,09,25,11,27,17.80
2009,09,25,11,28,17.80
2009,09,25,11,29,17.80
2009,09,25,11,30,17.90
2009,09,25,11,31,17.90
2009,09,25,11,32,18.00
2009,09,25,11,33,18.10
2009,09,25,11,34,18.10
2009,09,25,11,35,18.20
2009,09,25,11,36,18.30
2009,09,25,11,37,18.30
2009,09,25,11,38,18.40
2009,09,25,11,39,18.40
2009,09,25,11,40,18.50
2009,09,25,11,41,18.50
2009,09,25,11,42,18.50
2009,09,25,11,43,18.50
2009,09,25,11,44,18.50
2009,09,25,11,45,18.50
2009,09,25,11,46,18.50
2009,09,25,11,47,18.60
2009,09,25,11,48,18.60
2009,09,25,11,49,18.70
2009,09,25,11,50,18.70
2009,09,25,11,51,18.70
2009,09,25,11,52,18.80
2009,09,25,11,53,18.80
2009,09,25,11,54,18.80
2009,09,25,11,55,18.80
2009,09,25,11,56,18.80
2009,09,25,11,57,18.80
2009,09,25,11,58,18.90
2009,09,25,11,59,18.90
2009,09,25,12,00,18.90
2009,09,25,12,01,19.00
2009,09,25,12,02,19.00
2009,09,25,12,03,19.10
2009,09,25,12,04,19.10
2009,09,25,12,05,19.10
2009,09,25,12,06,19.10
2009,09,25,12,07,19.10
2009,09,25,12,08,19.10
2009,09,25,12,09,19.10
2009,09,25,12,10,19.10
2009,09,25,12,11,19.10
2009,09,25,12,12,19.20
2009,09,25,12,13,19.20
2009,09,25,12,14,19.20
2009,09,25,12,15,19.30
2009,09,25,12,16,19.30
2009,09,25,12,17,19.40
2009,09,25,12,18,19.40
2009,09,25,12,19,19.40
2009,09,25,12,20,19.40
2009,09,25,12,21,19.40
2009,09,25,12,22,19.30
2009,09,25,12,23,19.10
2009,09,25,12,24,19.10
2009,09,25,12,25,19.10
2009,09,25,12,26,19.10
2009,09,25,12,27,19.20
2009,09,25,12,28,19.30
2009,09,25,12,29,19.30
2009,09,25,12,30,19.40
2009,09,25,12,31,19.50
2009,09,25,12,32,19.60
2009,09,25,12,33,19.70
2009,09,25,12,34,19.70
2009,09,25,12,35,19.70
2009,09,25,12,36,19.70
2009,09,25,12,37,19.80
2009,09,25,12,38,19.80
2009,09,25,12,39,19.80
2009,09,25,12,40,19.90
2009,09,25,12,41,19.90
2009,09,25,12,42,19.90
2009,09,25,12,43,19.90
2009,09,25,12,44,19.90
2009,09,25,12,45,19.90
2009,09,25,12,46,19.90
2009,09,25,12,47,19.90
2009,09,25,12,48,20.00
2009,09,25,12,49,20.00
2009,09,25,12,50,20.00
2009,09,25,12,51,20.00
2009,09,25,12,52,20.10
2009,09,25,12,53,20.10
2009,09,25,12,54,20.10
2009,09,25,12,55,20.20
2009,09,25,12,56,20.20
2009,09,25,12,57,20.20
2009,09,25,12,58,20.20
2009,09,25,12,59,20.10
2009,09,25,13,00,20.00
2009,09,25,13,01,19.80
2009,09,25,13,02,19.80
2009,09,25,13,03,19.70
2009,09,25,13,04,19.70
2009,09,25,13,05,19.70
2009,09,25,13,06,19.60
2009,09,25,13,07,19.60
2009,09,25,13,08,19.70
2009,09,25,13,09,19.60
2009,09,25,13,10,19.70
2009,09,25,13,11,19.70
2009,09,25,13,12,19.80
2009,09,25,13,13,19.90
2009,09,25,13,14,19.90
2009,09,25,13,15,20.00
2009,09,25,13,16,20.10
2009,09,25,13,17,20.10
2009,09,25,13,18,20.10
2009,09,25,13,19,20.20
2009,09,25,13,20,20.20
2009,09,25,13,21,20.30
2009,09,25,13,22,20.30
2009,09,25,13,23,20.30
2009,09,25,13,24,20.30
2009,09,25,13,25,20.30
2009,09,25,13,26,20.40
2009,09,25,13,27,20.40
2009,09,25,13,28,20.40
2009,09,25,13,29,20.40
2009,09,25,13,30,20.40
2009,09,25,13,31,20.40
2009,09,25,13,32,20.40
2009,09,25,13,33,20.40
2009,09,25,13,34,20.40
2009,09,25,13,35,20.50
2009,09,25,13,36,20.60
2009,09,25,13,37,20.60
2009,09,25,13,38,20.50
2009,09,25,13,39,20.50
2009,09,25,13,40,20.50
2009,09,25,13,41,20.60
2009,09,25,13,42,20.60
2009,09,25,13,43,20.60
2009,09,25,13,44,20.70
2009,09,25,13,45,20.80
2009,09,25,13,46,20.80
2009,09,25,13,47,20.80
2009,09,25,13,48,20.80
2009,09,25,13,49,20.80
2009,09,25,13,50,20.80
2009,09,25,13,51,20.80
2009,09,25,13,52,20.80
2009,09,25,13,53,20.90
2009,09,25,13,54,20.90
2009,09,25,13,55,21.00
2009,09,25,13,56,21.10
2009,09,25,13,57,21.20
2009,09,25,13,58,21.30
2009,09,25,13,59,21.40
2009,09,25,14,00,21.40
2009,09,25,14,01,21.50
2009,09,25,14,02,21.50
2009,09,25,14,03,21.60
2009,09,25,14,04,21.60
2009,09,25,14,05,21.60
2009,09,25,14,06,21.60
2009,09,25,14,07,21.70
2009,09,25,14,08,21.70
2009,09,25,14,09,21.70
2009,09,25,14,10,21.70
2009,09,25,14,11,21.70
2009,09,25,14,12,21.80
2009,09,25,14,13,21.80
2009,09,25,14,14,21.90
2009,09,25,14,15,21.90
2009,09,25,14,16,22.00
2009,09,25,14,17,22.10
2009,09,25,14,18,22.10
2009,09,25,14,19,22.20
2009,09,25,14,20,22.20
2009,09,25,14,21,22.10
2009,09,25,14,22,22.10
2009,09,25,14,23,22.10
2009,09,25,14,24,22.00
2009,09,25,14,25,22.00
2009,09,25,14,26,22.10
2009,09,25,14,27,22.00
2009,09,25,14,28,22.00
2009,09,25,14,29,21.90
2009,09,25,14,30,21.90
2009,09,25,14,31,21.80
2009,09,25,14,32,21.80
2009,09,25,14,33,21.80
2009,09,25,14,34,21.80
2009,09,25,14,35,21.80
2009,09,25,14,36,21.80
2009,09,25,14,37,21.70
2009,09,25,14,38,21.70
2009,09,25,14,39,21.60
2009,09,25,14,40,21.50
2009,09,25,14,41,21.40
2009,09,25,14,42,21.30
2009,09,25,14,43,21.30
2009,09,25,14,44,21.20
2009,09,25,14,45,21.20
2009,09,25,14,46,21.20
2009,09,25,14,47,21.20
2009,09,25,14,48,21.20
2009,09,25,14,49,21.20
2009,09,25,14,50,21.20
2009,09,25,14,51,21.20
2009,09,25,14,52,21.30
2009,09,25,14,53,21.30
2009,09,25,14,54,21.30
2009,09,25,14,55,21.30
2009,09,25,14,56,21.30
2009,09,25,14,57,21.30
2009,09,25,14,58,21.20
2009,09,25,14,59,21.20
2009,09,25,15,00,21.10
2009,09,25,15,01,21.10
2009,09,25,15,02,21.20
2009,09,25,15,03,21.20
2009,09,25,15,04,21.10
2009,09,25,15,05,21.10
2009,09,25,15,06,21.20
2009,09,25,15,07,21.20
2009,09,25,15,08,21.30
2009,09,25,15,09,21.30
2009,09,25,15,10,21.20
2009,09,25,15,11,21.20
2009,09,25,15,12,21.20
2009,09,25,15,13,21.20
2009,09,25,15,14,21.10
2009,09,25,15,15,21.10
2009,09,25,15,16,21.20
2009,09,25,15,17,21.20
2009,09,25,15,18,21.20
2009,09,25,15,19,21.20
2009,09,25,15,20,21.20
2009,09,25,15,21,21.20
2009,09,25,15,22,21.20
2009,09,25,15,23,21.20
2009,09,25,15,24,21.20
2009,09,25,15,25,21.10
2009,09,25,15,26,20.90
2009,09,25,15,27,20.80
2009,09,25,15,28,20.70
2009,09,25,15,29,20.70
2009,09,25,15,30,20.70
2009,09,25,15,31,20.70
2009,09,25,15,32,20.70
2009,09,25,15,33,20.80
2009,09,25,15,34,20.80
2009,09,25,15,35,20.90
2009,09,25,15,36,21.00
2009,09,25,15,37,21.00
2009,09,25,15,38,21.10
2009,09,25,15,39,21.10
2009,09,25,15,40,21.20
2009,09,25,15,41,21.20
2009,09,25,15,42,21.20
2009,09,25,15,43,21.20
2009,09,25,15,44,21.20
2009,09,25,15,45,21.20
2009,09,25,15,46,21.20
2009,09,25,15,47,21.20
2009,09,25,15,48,21.20
2009,09,25,15,49,21.10
2009,09,25,15,50,21.10
2009,09,25,15,51,21.00
2009,09,25,15,52,21.00
2009,09,25,15,53,20.90
2009,09,25,15,54,20.90
2009,09,25,15,55,20.80
2009,09,25,15,56,20.80
2009,09,25,15,57,20.70
2009,09,25,15,58,20.70
2009,09,25,15,59,20.80
2009,09,25,16,00,20.80
2009,09,25,16,01,20.90
2009,09,25,16,02,20.90
2009,09,25,16,03,20.90
2009,09,25,16,04,20.90
2009,09,25,16,05,20.90
2009,09,25,16,06,20.90
2009,09,25,16,07,21.00
2009,09,25,16,08,21.00
2009,09,25,16,09,21.00
2009,09,25,16,10,21.00
2009,09,25,16,11,21.10
2009,09,25,16,12,21.10
2009,09,25,16,13,21.20
2009,09,25,16,14,21.20
2009,09,25,16,15,21.20
2009,09,25,16,16,21.20
2009,09,25,16,17,21.20
2009,09,25,16,18,21.20
2009,09,25,16,19,21.30
2009,09,25,16,20,21.30
2009,09,25,16,21,21.30
2009,09,25,16,22,21.30
2009,09,25,16,23,21.20
2009,09,25,16,24,21.20
2009,09,25,16,25,21.10
2009,09,25,16,26,21.20
2009,09,25,16,27,21.20
2009,09,25,16,28,21.20
2009,09,25,16,29,21.30
2009,09,25,16,30,21.40
2009,09,25,16,31,21.40
2009,09,25,16,32,21.50
2009,09,25,16,33,21.60
2009,09,25,16,34,21.60
2009,09,25,16,35,21.70
2009,09,25,16,36,21.70
2009,09,25,16,37,21.70
2009,09,25,16,38,21.70
2009,09,25,16,39,21.70
2009,09,25,16,40,21.70
2009,09,25,16,41,21.70
2009,09,25,16,42,21.70
2009,09,25,16,43,21.60
2009,09,25,16,44,21.50
2009,09,25,16,45,21.40
2009,09,25,16,46,21.30
2009,09,25,16,47,21.20
2009,09,25,16,48,21.20
2009,09,25,16,49,21.10
2009,09,25,16,50,21.00
2009,09,25,16,51,20.90
2009,09,25,16,52,20.80
2009,09,25,16,53,20.80
2009,09,25,16,54,20.70
2009,09,25,16,55,20.60
2009,09,25,16,56,20.60
2009,09,25,16,57,20.50
2009,09,25,16,58,20.50
2009,09,25,16,59,20.40
2009,09,25,17,00,20.40
2009,09,25,17,01,20.30
2009,09,25,17,02,20.30
2009,09,25,17,03,20.40
2009,09,25,17,04,20.40
2009,09,25,17,05,20.40
2009,09,25,17,06,20.50
2009,09,25,17,07,20.50
2009,09,25,17,08,20.60
2009,09,25,17,09,20.50
2009,09,25,17,10,20.50
2009,09,25,17,11,20.40
2009,09,25,17,12,20.30
2009,09,25,17,13,20.20
2009,09,25,17,14,20.10
2009,09,25,17,15,20.00
2009,09,25,17,16,20.00
2009,09,25,17,17,20.00
2009,09,25,17,18,20.00
2009,09,25,17,19,20.00
2009,09,25,17,20,20.10
2009,09,25,17,21,20.10
2009,09,25,17,22,20.10
2009,09,25,17,23,20.10
2009,09,25,17,24,20.10
2009,09,25,17,25,20.10
2009,09,25,17,26,20.10
2009,09,25,17,27,20.10
2009,09,25,17,28,20.10
2009,09,25,17,29,20.10
2009,09,25,17,30,20.10
2009,09,25,17,31,20.20
2009,09,25,17,32,20.20
2009,09,25,17,33,20.20
2009,09,25,17,34,20.20
2009,09,25,17,35,20.30
2009,09,25,17,36,20.30
2009,09,25,17,37,20.30